VOZ9371 YPPH-YLEO

Flight info

Callsign VOZ9371
Flight time 1h 8m
Altitude 37000
Route AMANA Y31 LAKIR Y69 YOKRA
Aircraft B737/M-SDE2E3FGHIRWXY/LB1

Departure

Time 2026-04-28 10:34
Airport Perth International Airport (YPPH)

Arrival

Time 2026-04-28 11:42
Airport Leonora Airport (YLEO)
Time Latitude Longitude Altitude Speed Heading
2026-04-28 10:07 -31.94407 115.96841 75 ft 0 kts 193°
2026-04-28 10:24 -31.94399 115.96843 75 ft 2 kts 193°
2026-04-28 10:24 -31.94385 115.96847 75 ft 2 kts 193°
2026-04-28 10:24 -31.94370 115.96851 75 ft 2 kts 200°
2026-04-28 10:24 -31.94358 115.96862 74 ft 2 kts 238°
2026-04-28 10:25 -31.94353 115.96879 74 ft 2 kts 270°
2026-04-28 10:25 -31.94354 115.96888 74 ft 1 kts 288°
2026-04-28 10:25 -31.94355 115.96893 74 ft 0 kts 283°
2026-04-28 10:27 -31.94352 115.96878 74 ft 5 kts 283°
2026-04-28 10:28 -31.94344 115.96836 75 ft 4 kts 283°
2026-04-28 10:28 -31.94338 115.96809 75 ft 3 kts 288°
2026-04-28 10:28 -31.94290 115.96783 75 ft 13 kts
2026-04-28 10:29 -31.94080 115.96843 73 ft 14 kts 14°
2026-04-28 10:29 -31.93984 115.96870 73 ft 13 kts 14°
2026-04-28 10:29 -31.93899 115.96896 71 ft 12 kts 14°
2026-04-28 10:29 -31.93809 115.96921 69 ft 14 kts 14°
2026-04-28 10:30 -31.93701 115.96954 66 ft 15 kts 14°
2026-04-28 10:30 -31.93600 115.96982 65 ft 15 kts 13°
2026-04-28 10:30 -31.93484 115.97015 64 ft 17 kts 14°
2026-04-28 10:30 -31.93374 115.97048 63 ft 15 kts 14°
2026-04-28 10:31 -31.93281 115.97076 62 ft 13 kts 15°
2026-04-28 10:31 -31.93182 115.97105 63 ft 14 kts 14°
2026-04-28 10:31 -31.93080 115.97134 63 ft 15 kts 13°
2026-04-28 10:31 -31.92986 115.97161 64 ft 11 kts 10°
2026-04-28 10:32 -31.92936 115.97113 63 ft 10 kts 285°
2026-04-28 10:32 -31.92915 115.97014 61 ft 12 kts 285°
2026-04-28 10:32 -31.92890 115.96894 58 ft 15 kts 281°
2026-04-28 10:32 -31.92949 115.96822 60 ft 15 kts 193°
2026-04-28 10:33 -31.93170 115.96758 61 ft 63 kts 193°
2026-04-28 10:33 -31.93812 115.96571 70 ft 125 kts 193°
2026-04-28 10:33 -31.94837 115.96272 135 ft 169 kts 191°
2026-04-28 10:33 -31.96011 115.95898 621 ft 182 kts 192°
2026-04-28 10:34 -31.97179 115.95505 1511 ft 168 kts 190°
2026-04-28 10:34 -31.98352 115.95147 1896 ft 184 kts 188°
2026-04-28 10:34 -31.99636 115.94819 2353 ft 195 kts 187°
2026-04-28 10:34 -32.01036 115.94774 2716 ft 210 kts 167°
2026-04-28 10:35 -32.02412 115.95465 3126 ft 222 kts 140°
2026-04-28 10:35 -32.03435 115.96896 3516 ft 236 kts 115°
2026-04-28 10:35 -32.04004 115.98766 3962 ft 251 kts 104°
2026-04-28 10:35 -32.04451 116.00790 4425 ft 265 kts 103°
2026-04-28 10:36 -32.04922 116.02908 5101 ft 271 kts 104°
2026-04-28 10:36 -32.05420 116.05059 5825 ft 275 kts 104°
2026-04-28 10:36 -32.05939 116.07255 6512 ft 280 kts 104°
2026-04-28 10:36 -32.06467 116.09476 7313 ft 281 kts 104°
2026-04-28 10:37 -32.06991 116.11694 8071 ft 284 kts 104°
2026-04-28 10:37 -32.07516 116.13917 8834 ft 287 kts 105°
2026-04-28 10:37 -32.08051 116.16186 9596 ft 290 kts 105°
2026-04-28 10:37 -32.08458 116.18536 10303 ft 295 kts 95°
2026-04-28 10:38 -32.08311 116.20980 10745 ft 310 kts 75°
2026-04-28 10:38 -32.07394 116.23325 11162 ft 324 kts 55°
2026-04-28 10:38 -32.05904 116.25401 11574 ft 340 kts 47°
2026-04-28 10:38 -32.04244 116.27478 12069 ft 353 kts 46°
2026-04-28 10:39 -32.02544 116.29590 12841 ft 357 kts 46°
2026-04-28 10:39 -32.00813 116.31740 13591 ft 362 kts 46°
2026-04-28 10:39 -31.99080 116.33900 14344 ft 367 kts 46°
2026-04-28 10:39 -31.97342 116.36069 15072 ft 372 kts 45°
2026-04-28 10:40 -31.95565 116.38281 15794 ft 377 kts 45°
2026-04-28 10:40 -31.93766 116.40520 16508 ft 381 kts 44°
2026-04-28 10:40 -31.91928 116.42795 17229 ft 386 kts 44°
2026-04-28 10:40 -31.90086 116.45077 17892 ft 391 kts 44°
2026-04-28 10:41 -31.88205 116.47417 18620 ft 394 kts 43°
2026-04-28 10:41 -31.86324 116.49752 19345 ft 396 kts 43°
2026-04-28 10:41 -31.84419 116.52114 20016 ft 400 kts 43°
2026-04-28 10:41 -31.82508 116.54480 20686 ft 403 kts 43°
2026-04-28 10:42 -31.80578 116.56869 21337 ft 407 kts 43°
2026-04-28 10:42 -31.78616 116.59300 21955 ft 410 kts 43°
2026-04-28 10:42 -31.76647 116.61739 22593 ft 413 kts 43°
2026-04-28 10:42 -31.74657 116.64202 23175 ft 416 kts 43°
2026-04-28 10:43 -31.72650 116.66685 23807 ft 419 kts 43°
2026-04-28 10:43 -31.70621 116.69190 24412 ft 421 kts 42°
2026-04-28 10:43 -31.68605 116.71683 24990 ft 423 kts 43°
2026-04-28 10:43 -31.66576 116.74191 25595 ft 425 kts 42°
2026-04-28 10:44 -31.64538 116.76709 26079 ft 428 kts 42°
2026-04-28 10:44 -31.62485 116.79244 26613 ft 431 kts 42°
2026-04-28 10:44 -31.60429 116.81783 27182 ft 432 kts 42°
2026-04-28 10:44 -31.58369 116.84364 27667 ft 435 kts 44°
2026-04-28 10:45 -31.56391 116.87106 28222 ft 439 kts 48°
2026-04-28 10:45 -31.54621 116.90058 28676 ft 445 kts 53°
2026-04-28 10:45 -31.53053 116.93164 29163 ft 448 kts 56°
2026-04-28 10:45 -31.51567 116.96420 29731 ft 449 kts 58°
2026-04-28 10:46 -31.50178 116.99627 30455 ft 444 kts 59°
2026-04-28 10:46 -31.48803 117.02856 31053 ft 441 kts 59°
2026-04-28 10:46 -31.47415 117.06112 31421 ft 444 kts 59°
2026-04-28 10:46 -31.46032 117.09336 31806 ft 446 kts 59°
2026-04-28 10:47 -31.44637 117.12569 32290 ft 445 kts 59°
2026-04-28 10:47 -31.43213 117.15845 32783 ft 444 kts 58°
2026-04-28 10:47 -31.41800 117.19083 33238 ft 444 kts 58°
2026-04-28 10:47 -31.40400 117.22279 33619 ft 445 kts 58°
2026-04-28 10:48 -31.38977 117.25515 33996 ft 445 kts 58°
2026-04-28 10:48 -31.37547 117.28755 34303 ft 446 kts 58°
2026-04-28 10:48 -31.36119 117.31985 34604 ft 447 kts 58°
2026-04-28 10:48 -31.34693 117.35211 34887 ft 448 kts 58°
2026-04-28 10:49 -31.33252 117.38463 35105 ft 451 kts 58°
2026-04-28 10:49 -31.31813 117.41707 35461 ft 450 kts 58°
2026-04-28 10:49 -31.30360 117.44980 35621 ft 454 kts 58°
2026-04-28 10:49 -31.28915 117.48231 35963 ft 454 kts 58°
2026-04-28 10:50 -31.27422 117.51486 36349 ft 451 kts 56°
2026-04-28 10:50 -31.25773 117.54603 36527 ft 452 kts 51°
2026-04-28 10:50 -31.23958 117.57619 36796 ft 451 kts 49°
2026-04-28 10:50 -31.22085 117.60544 37029 ft 452 kts 48°
2026-04-28 10:51 -31.20153 117.63487 37045 ft 456 kts 47°
2026-04-28 10:51 -31.16291 117.69330 37052 ft 449 kts 47°
2026-04-28 10:52 -31.12476 117.75120 37056 ft 450 kts 47°
2026-04-28 10:52 -31.08649 117.80959 37056 ft 453 kts 47°
2026-04-28 10:53 -31.04820 117.86823 37067 ft 452 kts 47°
2026-04-28 10:53 -31.01014 117.92655 37069 ft 453 kts 47°
2026-04-28 10:54 -30.97185 117.98508 37054 ft 453 kts 47°
2026-04-28 10:54 -30.93347 118.04372 37057 ft 454 kts 47°
2026-04-28 10:55 -30.89526 118.10201 37059 ft 454 kts 47°
2026-04-28 10:55 -30.85650 118.16106 37059 ft 455 kts 47°
2026-04-28 10:56 -30.81823 118.21933 37059 ft 454 kts 47°
2026-04-28 10:56 -30.78000 118.27748 37044 ft 453 kts 47°
2026-04-28 10:57 -30.74146 118.33593 37058 ft 454 kts 47°
2026-04-28 10:57 -30.70284 118.39440 37054 ft 456 kts 47°
2026-04-28 10:58 -30.66408 118.45296 37049 ft 454 kts 47°
2026-04-28 10:58 -30.62553 118.51122 37053 ft 456 kts 46°
2026-04-28 10:59 -30.58684 118.56961 37057 ft 458 kts 46°
2026-04-28 10:59 -30.54801 118.62808 37051 ft 457 kts 46°
2026-04-28 11:00 -30.50908 118.68657 37051 ft 455 kts 46°
2026-04-28 11:00 -30.47016 118.74491 37052 ft 457 kts 46°
2026-04-28 11:01 -30.43117 118.80328 37054 ft 458 kts 46°
2026-04-28 11:01 -30.39229 118.86150 37048 ft 458 kts 46°
2026-04-28 11:02 -30.35335 118.91979 37052 ft 457 kts 46°
2026-04-28 11:02 -30.31411 118.97841 37050 ft 457 kts 45°
2026-04-28 11:03 -30.27503 119.03667 37056 ft 458 kts 45°
2026-04-28 11:03 -30.23594 119.09477 37063 ft 460 kts 46°
2026-04-28 11:04 -30.19670 119.15299 37052 ft 460 kts 45°
2026-04-28 11:04 -30.15740 119.21137 37065 ft 460 kts 45°
2026-04-28 11:05 -30.11814 119.26955 37082 ft 458 kts 45°
2026-04-28 11:05 -30.07896 119.32758 36910 ft 455 kts 46°
2026-04-28 11:05 -30.06015 119.35696 36492 ft 453 kts 49°
2026-04-28 11:06 -30.04236 119.38688 35946 ft 453 kts 50°
2026-04-28 11:06 -30.02499 119.41724 35436 ft 452 kts 51°
2026-04-28 11:06 -30.00790 119.44756 34981 ft 450 kts 52°
2026-04-28 11:06 -29.99104 119.47752 34494 ft 450 kts 52°
2026-04-28 11:07 -29.97388 119.50781 33986 ft 450 kts 52°
2026-04-28 11:07 -29.95682 119.53777 33410 ft 449 kts 52°
2026-04-28 11:07 -29.93969 119.56768 32864 ft 447 kts 52°
2026-04-28 11:07 -29.92262 119.59732 32347 ft 444 kts 52°
2026-04-28 11:08 -29.90553 119.62687 31833 ft 441 kts 51°
2026-04-28 11:08 -29.88839 119.65645 31310 ft 438 kts 51°
2026-04-28 11:08 -29.87153 119.68548 30792 ft 434 kts 51°
2026-04-28 11:08 -29.85475 119.71433 30285 ft 425 kts 51°
2026-04-28 11:09 -29.83850 119.74225 29788 ft 415 kts 51°
2026-04-28 11:09 -29.82263 119.76949 29296 ft 406 kts 51°
2026-04-28 11:09 -29.80708 119.79614 28825 ft 397 kts 51°
2026-04-28 11:09 -29.79174 119.82235 28360 ft 393 kts 51°
2026-04-28 11:10 -29.77650 119.84833 27898 ft 389 kts 51°
2026-04-28 11:10 -29.76146 119.87395 27433 ft 386 kts 51°
2026-04-28 11:10 -29.74647 119.89944 26971 ft 383 kts 51°
2026-04-28 11:10 -29.73164 119.92470 26516 ft 381 kts 51°
2026-04-28 11:11 -29.71689 119.94980 26061 ft 378 kts 51°
2026-04-28 11:11 -29.70210 119.97497 25608 ft 375 kts 51°
2026-04-28 11:11 -29.68760 119.99966 25158 ft 372 kts 51°
2026-04-28 11:11 -29.67316 120.02419 24709 ft 369 kts 51°
2026-04-28 11:12 -29.65890 120.04842 24266 ft 366 kts 51°
2026-04-28 11:12 -29.64472 120.07252 23820 ft 364 kts 51°
2026-04-28 11:12 -29.63072 120.09634 23390 ft 361 kts 51°
2026-04-28 11:12 -29.61679 120.12001 22964 ft 358 kts 51°
2026-04-28 11:13 -29.60291 120.14360 22529 ft 355 kts 51°
2026-04-28 11:13 -29.58913 120.16698 22103 ft 353 kts 51°
2026-04-28 11:13 -29.57527 120.19046 21670 ft 351 kts 51°
2026-04-28 11:13 -29.56180 120.21328 21251 ft 348 kts 51°
2026-04-28 11:14 -29.54808 120.23655 20832 ft 346 kts 51°
2026-04-28 11:14 -29.53461 120.25938 20406 ft 344 kts 51°
2026-04-28 11:14 -29.52143 120.28169 20000 ft 341 kts 51°
2026-04-28 11:14 -29.50815 120.30414 19582 ft 339 kts 51°
2026-04-28 11:15 -29.49488 120.32657 19166 ft 337 kts 51°
2026-04-28 11:15 -29.48189 120.34852 18763 ft 335 kts 51°
2026-04-28 11:15 -29.46882 120.37057 18356 ft 332 kts 51°
2026-04-28 11:15 -29.45579 120.39255 17946 ft 330 kts 51°
2026-04-28 11:16 -29.44302 120.41406 17541 ft 328 kts 51°
2026-04-28 11:16 -29.43013 120.43571 17134 ft 326 kts 51°
2026-04-28 11:16 -29.41754 120.45683 16746 ft 324 kts 51°
2026-04-28 11:16 -29.40479 120.47820 16346 ft 322 kts 51°
2026-04-28 11:17 -29.39226 120.49925 15952 ft 320 kts 51°
2026-04-28 11:17 -29.37985 120.52012 15563 ft 318 kts 51°
2026-04-28 11:17 -29.36734 120.54112 15171 ft 316 kts 51°
2026-04-28 11:17 -29.35506 120.56173 14772 ft 314 kts 51°
2026-04-28 11:18 -29.34286 120.58221 14385 ft 312 kts 51°
2026-04-28 11:18 -29.33055 120.60282 13994 ft 310 kts 51°
2026-04-28 11:18 -29.31846 120.62309 13601 ft 308 kts 51°
2026-04-28 11:18 -29.30642 120.64326 13219 ft 306 kts 51°
2026-04-28 11:19 -29.29450 120.66325 12846 ft 303 kts 51°
2026-04-28 11:19 -29.28270 120.68319 12460 ft 302 kts 51°
2026-04-28 11:19 -29.27092 120.70312 12084 ft 299 kts 51°
2026-04-28 11:19 -29.25909 120.72282 11714 ft 297 kts 51°
2026-04-28 11:20 -29.24744 120.74216 11343 ft 296 kts 51°
2026-04-28 11:20 -29.23584 120.76143 10974 ft 294 kts 51°
2026-04-28 11:20 -29.22436 120.78051 10596 ft 292 kts 51°
2026-04-28 11:20 -29.21289 120.79961 10230 ft 290 kts 51°
2026-04-28 11:21 -29.20142 120.81875 9884 ft 287 kts 51°
2026-04-28 11:21 -29.19037 120.83723 9642 ft 281 kts 51°
2026-04-28 11:21 -29.17928 120.85571 9274 ft 280 kts 52°
2026-04-28 11:21 -29.16832 120.87399 8931 ft 278 kts 51°
2026-04-28 11:22 -29.15741 120.89221 8595 ft 276 kts 51°
2026-04-28 11:22 -29.14661 120.91029 8254 ft 274 kts 51°
2026-04-28 11:22 -29.13591 120.92819 7912 ft 272 kts 51°
2026-04-28 11:22 -29.12522 120.94603 7552 ft 271 kts 51°
2026-04-28 11:23 -29.11470 120.96361 7196 ft 270 kts 51°
2026-04-28 11:23 -29.10402 120.98148 6830 ft 269 kts 51°
2026-04-28 11:23 -29.09350 120.99902 6472 ft 267 kts 51°
2026-04-28 11:23 -29.08306 121.01633 6120 ft 263 kts 51°
2026-04-28 11:24 -29.07281 121.03333 5780 ft 257 kts 51°
2026-04-28 11:24 -29.06282 121.04996 5448 ft 249 kts 51°
2026-04-28 11:24 -29.05311 121.06616 5109 ft 241 kts 51°
2026-04-28 11:24 -29.04379 121.08172 4774 ft 235 kts 51°
2026-04-28 11:25 -29.03464 121.09694 4461 ft 229 kts 51°
2026-04-28 11:25 -29.02581 121.11163 4153 ft 223 kts 51°
2026-04-28 11:25 -29.01712 121.12605 3845 ft 217 kts 51°
2026-04-28 11:25 -29.00861 121.14013 3533 ft 213 kts 51°
2026-04-28 11:26 -29.00026 121.15389 3232 ft 207 kts 51°
2026-04-28 11:26 -28.99233 121.16701 3073 ft 192 kts 52°
2026-04-28 11:26 -28.98509 121.17901 3080 ft 172 kts 51°
2026-04-28 11:26 -28.97850 121.18990 3078 ft 166 kts 51°
2026-04-28 11:27 -28.97243 121.20101 3069 ft 158 kts 55°
2026-04-28 11:27 -28.96752 121.21139 3063 ft 136 kts 56°
2026-04-28 11:27 -28.96532 121.21636 2986 ft 133 kts 58°
2026-04-28 11:27 -28.96188 121.22425 2885 ft 121 kts 53°
2026-04-28 11:28 -28.95764 121.23198 3005 ft 113 kts 49°
2026-04-28 11:28 -28.95278 121.23926 3067 ft 119 kts 47°
2026-04-28 11:28 -28.94714 121.24726 2842 ft 141 kts 44°
2026-04-28 11:28 -28.94042 121.25541 2591 ft 138 kts 44°
2026-04-28 11:29 -28.93386 121.26295 2323 ft 128 kts 44°
2026-04-28 11:29 -28.92783 121.26988 2104 ft 117 kts 43°
2026-04-28 11:29 -28.92237 121.27625 1913 ft 109 kts 45°
2026-04-28 11:29 -28.91689 121.28235 1797 ft 110 kts 40°
2026-04-28 11:30 -28.91069 121.28758 1787 ft 112 kts 38°
2026-04-28 11:30 -28.89739 121.29909 1610 ft 127 kts 38°
2026-04-28 11:30 -28.89024 121.30515 1597 ft 124 kts 39°
2026-04-28 11:31 -28.88333 121.31137 2245 ft 138 kts 39°
2026-04-28 11:31 -28.87503 121.31919 2629 ft 173 kts 37°
2026-04-28 11:31 -28.86550 121.32732 3467 ft 177 kts 34°
2026-04-28 11:31 -28.85590 121.33554 4295 ft 181 kts 34°
2026-04-28 11:32 -28.84422 121.34499 4334 ft 227 kts 32°
2026-04-28 11:32 -28.82981 121.35593 4188 ft 269 kts 31°
2026-04-28 11:32 -28.81386 121.36821 4725 ft 278 kts 34°
2026-04-28 11:32 -28.79716 121.38052 4784 ft 305 kts 24°
2026-04-28 11:33 -28.77679 121.38982 4283 ft 317 kts 22°
2026-04-28 11:33 -28.75913 121.40259 3974 ft 275 kts 38°
2026-04-28 11:33 -28.74463 121.41325 4227 ft 223 kts 19°
2026-04-28 11:33 -28.73028 121.41440 4312 ft 203 kts 348°
2026-04-28 11:34 -28.71832 121.40601 4298 ft 208 kts 315°
2026-04-28 11:34 -28.71236 121.39050 4136 ft 220 kts 286°
2026-04-28 11:34 -28.71303 121.37290 3907 ft 230 kts 259°
2026-04-28 11:34 -28.71915 121.35594 3660 ft 237 kts 246°
2026-04-28 11:35 -28.72895 121.34062 3373 ft 240 kts 232°
2026-04-28 11:35 -28.74018 121.32646 3123 ft 236 kts 231°
2026-04-28 11:35 -28.75083 121.31302 3088 ft 220 kts 231°
2026-04-28 11:35 -28.76100 121.30021 3096 ft 218 kts 232°
2026-04-28 11:36 -28.77144 121.28720 3085 ft 219 kts 231°
2026-04-28 11:36 -28.78167 121.27449 3083 ft 216 kts 231°
2026-04-28 11:36 -28.79151 121.26235 3076 ft 199 kts 231°
2026-04-28 11:36 -28.80112 121.25108 3080 ft 199 kts 220°
2026-04-28 11:37 -28.81367 121.24455 3091 ft 201 kts 195°
2026-04-28 11:37 -28.82737 121.24023 3078 ft 201 kts 186°
2026-04-28 11:37 -28.84109 121.23781 3076 ft 195 kts 193°
2026-04-28 11:37 -28.85349 121.23350 3072 ft 179 kts 197°
2026-04-28 11:38 -28.86527 121.22924 3076 ft 178 kts 197°
2026-04-28 11:38 -28.87722 121.22519 3081 ft 179 kts 196°
2026-04-28 11:38 -28.88924 121.22108 3084 ft 178 kts 197°
2026-04-28 11:38 -28.90112 121.21700 3082 ft 178 kts 197°
2026-04-28 11:39 -28.91316 121.21319 3088 ft 180 kts 186°
2026-04-28 11:39 -28.92449 121.21627 3084 ft 161 kts 128°
2026-04-28 11:39 -28.93027 121.22643 3097 ft 145 kts 94°
2026-04-28 11:39 -28.92987 121.23701 3046 ft 133 kts 67°
2026-04-28 11:40 -28.92812 121.24735 2847 ft 132 kts 69°
2026-04-28 11:40 -28.92563 121.25731 2522 ft 131 kts 65°
2026-04-28 11:40 -28.92284 121.26701 2226 ft 129 kts 64°
2026-04-28 11:40 -28.91914 121.27618 1941 ft 124 kts 54°
2026-04-28 11:41 -28.91468 121.28412 1763 ft 115 kts 50°
2026-04-28 11:41 -28.90848 121.29004 1654 ft 122 kts 35°
2026-04-28 11:41 -28.90132 121.29569 1534 ft 127 kts 38°
2026-04-28 11:41 -28.89412 121.30182 1368 ft 127 kts 39°
2026-04-28 11:42 -28.88730 121.30766 1234 ft 116 kts 39°
2026-04-28 11:42 -28.88294 121.31139 1235 ft 49 kts 35°
2026-04-28 11:42 -28.88050 121.31342 1240 ft 35 kts 36°
2026-04-28 11:42 -28.87871 121.31496 1241 ft 29 kts 36°
2026-04-28 11:43 -28.87809 121.31555 1240 ft 5 kts 71°
2026-04-28 11:43 -28.87819 121.31585 1240 ft 2 kts 128°
2026-04-28 11:43 -28.87830 121.31600 1240 ft 3 kts 128°
2026-04-28 11:43 -28.87843 121.31612 1241 ft 1 kts 163°
2026-04-28 11:44 -28.87885 121.31615 1241 ft 6 kts 175°
2026-04-28 11:44 -28.87915 121.31617 1243 ft 2 kts 175°
2026-04-28 11:44 -28.87918 121.31618 1243 ft 0 kts 175°